Weather History for Crystal River, FL

Change the Weather History Date:

Saturday, December 8, 2012

  Actual Average (KBKV) Record (KBKV)
Temperature  
Mean Temperature 68 °F -  
Max Temperature 77 °F 71 °F 82 °F (2001)
Min Temperature 60 °F 48 °F 21 °F (2010)
Cooling Degree Days 4    
Growing Degree Days 18 (Base 50)    
Moisture  
Dew Point 63 °F    
Average Humidity 91    
Maximum Humidity 100    
Minimum Humidity 65    
Precipitation  
Precipitation 0.00 in - - ()
Sea Level Pressure  
Sea Level Pressure 30.03 in    
Wind  
Wind Speed 4 mph (East)    
Max Wind Speed 8 mph    
Max Gust Speed -    
Visibility 6 miles    
Events Fog    
Averages and records for this station are not official NWS values.
T = Trace of Precipitation, MM = Missing Value Source: NWS Daily Summary

Daily Weather History Graph

Daily Weather History Graph

Search for Another Location

Airport:

Trip Planner

Search our weather history database for the weather conditions in past years. The results will help you decide how hot, cold, wet, or windy it might be!

Date:

Astronomy

Dec. 08, 2012 Rise Set
Actual Time 7:11 AM EST 5:33 PM EST
Civil Twilight 6:45 AM EST 5:59 PM EST
Nautical Twilight 6:16 AM EST 6:28 PM EST
Astronomical Twilight 5:47 AM EST 6:57 PM EST
Moon 1:55 AM EST (12/8) 1:44 PM EST (12/8)
Length of Visible Light 11h 13m
Length of Day
10h 21m
Waning Crescent, 28% of the Moon is Illuminated
Dec 8
Waning Crescent
Dec 13
New
Dec 20
First Quarter
Dec 28
Full
Jan 4
Last Quarter

Hourly Weather History & Observations

Time (EST) Temp. Dew Point Humidity Pressure Visibility Wind Dir Wind Speed Gust Speed Precip Events Conditions
12:15 AM 62.6 °F 62.6 °F 100% 30.01 in 5.0 mi East 6.9 mph - N/A   Overcast
12:35 AM 62.6 °F 62.6 °F 100% 30.01 in 7.0 mi East 4.6 mph - N/A   Overcast
12:55 AM 62.6 °F 62.6 °F 100% 30.01 in 5.0 mi East 5.8 mph - N/A   Overcast
1:15 AM 62.6 °F 62.6 °F 100% 30.01 in 4.0 mi East 5.8 mph - N/A   Overcast
1:35 AM 62.6 °F 62.6 °F 100% 30.01 in 2.0 mi ENE 5.8 mph - N/A   Overcast
1:55 AM 62.6 °F 62.6 °F 100% 30.01 in 1.2 mi ENE 5.8 mph - N/A   Overcast
2:15 AM 62.6 °F 62.6 °F 100% 30.01 in 1.0 mi East 5.8 mph - N/A   Overcast
2:35 AM 62.6 °F 62.6 °F 100% 30.00 in 1.0 mi East 5.8 mph - N/A   Overcast
2:55 AM 62.6 °F 62.6 °F 100% 29.99 in 0.8 mi East 5.8 mph - N/A   Overcast
3:15 AM 62.6 °F 62.6 °F 100% 29.99 in 1.0 mi ENE 3.5 mph - N/A   Overcast
3:35 AM 62.6 °F 62.6 °F 100% 29.99 in 0.5 mi East 5.8 mph - N/A Fog Fog
3:55 AM 60.8 °F 60.8 °F 100% 29.99 in 0.8 mi ENE 6.9 mph - N/A   Overcast
4:15 AM 60.8 °F 60.8 °F 100% 30.00 in 0.8 mi East 4.6 mph - N/A   Overcast
4:35 AM 60.8 °F 60.8 °F 100% 30.00 in 0.8 mi ENE 4.6 mph - N/A   Overcast
4:55 AM 60.8 °F 60.8 °F 100% 30.01 in 0.8 mi East 4.6 mph - N/A   Overcast
5:15 AM 60.8 °F 60.8 °F 100% 30.01 in 0.8 mi East 5.8 mph - N/A   Overcast
5:35 AM 60.8 °F 60.8 °F 100% 30.01 in 0.5 mi ENE 5.8 mph - N/A Fog Fog
6:15 AM 60.8 °F 60.8 °F 100% 30.01 in 0.5 mi East 4.6 mph - N/A Fog Fog
6:35 AM 60.8 °F 60.8 °F 100% 30.02 in 0.5 mi ENE 4.6 mph - N/A Fog Fog
6:55 AM 60.8 °F 60.8 °F 100% 30.02 in 0.8 mi East 4.6 mph - N/A   Overcast
7:15 AM 60.8 °F 60.8 °F 100% 30.03 in 0.8 mi East 6.9 mph - N/A   Overcast
7:35 AM 60.8 °F 60.8 °F 100% 30.04 in 0.5 mi ESE 4.6 mph - N/A Fog Fog
7:55 AM 60.8 °F 60.8 °F 100% 30.04 in 0.5 mi East 5.8 mph - N/A Fog Fog
8:15 AM 60.8 °F 60.8 °F 100% 30.05 in 0.5 mi ENE 5.8 mph - N/A Fog Fog
8:35 AM 60.8 °F 60.8 °F 100% 30.05 in 0.8 mi East 6.9 mph - N/A   Overcast
8:55 AM 60.8 °F 60.8 °F 100% 30.06 in 1.8 mi ENE 4.6 mph - N/A   Overcast
9:15 AM 60.8 °F 60.8 °F 100% 30.06 in 1.5 mi ENE 5.8 mph - N/A   Overcast
9:35 AM 62.6 °F 62.6 °F 100% 30.07 in 1.8 mi East 5.8 mph - N/A   Overcast
9:55 AM 62.6 °F 62.6 °F 100% 30.07 in 7.0 mi East 5.8 mph - N/A   Overcast
10:15 AM 62.6 °F 62.6 °F 100% 30.07 in 4.0 mi East 5.8 mph - N/A   Overcast
10:35 AM 64.4 °F 62.6 °F 94% 30.07 in 7.0 mi ESE 3.5 mph - N/A   Overcast
10:55 AM 66.2 °F 64.4 °F 94% 30.07 in 10.0 mi ESE 3.5 mph - N/A   Overcast
11:15 AM 66.2 °F 64.4 °F 94% 30.06 in 10.0 mi East 5.8 mph - N/A   Overcast
11:35 AM 68.0 °F 64.4 °F 88% 30.06 in 10.0 mi East 4.6 mph - N/A   Overcast
11:55 AM 69.8 °F 64.4 °F 83% 30.04 in 10.0 mi Calm Calm - N/A   Overcast
12:15 PM 69.8 °F 64.4 °F 83% 30.04 in 10.0 mi Calm Calm - N/A   Overcast
12:35 PM 69.8 °F 64.4 °F 83% 30.03 in 10.0 mi Calm Calm - N/A   Overcast
12:55 PM 71.6 °F 64.4 °F 78% 30.02 in 10.0 mi Calm Calm - N/A   Overcast
1:15 PM 73.4 °F 64.4 °F 73% 30.01 in 10.0 mi Calm Calm - N/A   Overcast
1:35 PM 71.6 °F 64.4 °F 78% 30.01 in 10.0 mi Calm Calm - N/A   Scattered Clouds
1:55 PM 77.0 °F 64.4 °F 65% 30.00 in 10.0 mi WSW 3.5 mph - N/A   Mostly Cloudy
2:15 PM 75.2 °F 64.4 °F 69% 30.00 in 10.0 mi Calm Calm - N/A   Mostly Cloudy
2:35 PM 77.0 °F 64.4 °F 65% 30.00 in 10.0 mi Calm Calm - N/A   Mostly Cloudy
2:55 PM 77.0 °F 64.4 °F 65% 29.99 in 10.0 mi Calm Calm - N/A   Mostly Cloudy
3:15 PM 77.0 °F 64.4 °F 65% 29.99 in 10.0 mi Calm Calm - N/A   Mostly Cloudy
3:35 PM 77.0 °F 64.4 °F 65% 30.00 in 10.0 mi West 8.1 mph - N/A   Scattered Clouds
3:55 PM 77.0 °F 64.4 °F 65% 30.00 in 10.0 mi West 5.8 mph - N/A   Clear
4:15 PM 75.2 °F 64.4 °F 69% 30.00 in 10.0 mi West 3.5 mph - N/A   Clear
4:35 PM 73.4 °F 64.4 °F 73% 30.00 in 10.0 mi West 4.6 mph - N/A   Clear
4:55 PM 73.4 °F 64.4 °F 73% 30.00 in 10.0 mi WNW 3.5 mph - N/A   Mostly Cloudy
5:15 PM 71.6 °F 64.4 °F 78% 30.01 in 10.0 mi Calm Calm - N/A   Scattered Clouds
5:35 PM 71.6 °F 64.4 °F 78% 30.01 in 10.0 mi Calm Calm - N/A   Mostly Cloudy
5:55 PM 69.8 °F 64.4 °F 83% 30.01 in 10.0 mi Calm Calm - N/A   Scattered Clouds
6:15 PM 68.0 °F 64.4 °F 88% 30.02 in 10.0 mi Calm Calm - N/A   Mostly Cloudy
6:35 PM 68.0 °F 64.4 °F 88% 30.03 in 10.0 mi Calm Calm - N/A   Overcast
6:55 PM 69.8 °F 64.4 °F 83% 30.04 in 10.0 mi Calm Calm - N/A   Overcast
7:15 PM 68.0 °F 64.4 °F 88% 30.04 in 10.0 mi Calm Calm - N/A   Mostly Cloudy
7:35 PM 68.0 °F 64.4 °F 88% 30.04 in 10.0 mi Calm Calm - N/A   Mostly Cloudy
7:55 PM 64.4 °F 62.6 °F 94% 30.04 in 10.0 mi Calm Calm - N/A   Scattered Clouds
8:15 PM 64.4 °F 62.6 °F 94% 30.05 in 10.0 mi Calm Calm - N/A   Clear
8:55 PM 62.6 °F 62.6 °F 100% 30.06 in 10.0 mi Calm Calm - N/A   Mostly Cloudy
9:15 PM 62.6 °F 62.6 °F 100% 30.06 in 10.0 mi Calm Calm - N/A   Scattered Clouds
9:35 PM 62.6 °F 62.6 °F 100% 30.06 in 10.0 mi Calm Calm - N/A   Clear
9:55 PM 62.6 °F 60.8 °F 94% 30.06 in 10.0 mi Calm Calm - N/A   Clear
10:15 PM 62.6 °F 60.8 °F 94% 30.06 in 10.0 mi Calm Calm - N/A   Clear
10:35 PM 60.8 °F 60.8 °F 100% 30.06 in 10.0 mi Calm Calm - N/A   Clear
10:55 PM 60.8 °F 60.8 °F 100% 30.06 in 7.0 mi Calm Calm - N/A   Clear
11:35 PM 62.6 °F 60.8 °F 94% 30.07 in 10.0 mi Calm Calm - N/A   Overcast
11:55 PM 62.6 °F 62.6 °F 100% 30.07 in 10.0 mi Calm Calm - N/A   Overcast